Simultaneous Nadir Overpasses (SNOs) Predictions

Prediction of SNOs between METOP-C and LANDSAT-8 Satellite Orbit:

Table of predicted SNOs for the next 14.0 days since TLE Epoch: 10/15/2022
Index Date (METOP-C) Time (METOP-C) Lat,Lon (METOP-C) SZA (METOP-C ) Date (LANDSAT-8) Time (LANDSAT-8) Lat,Lon (LANDSAT-8) SZA (LANDSAT-8 ) Distance(km) Time Diff (sec)
1 10/15/2022 18:02:15 81.10, -51.17 92.12 10/15/2022 18:02:20 81.10, -50.98 92.14 3.20 5
2 10/15/2022 18:52:55 -81.12, 116.83 87.79 10/15/2022 18:51:46 -81.12, 116.98 87.80 2.64 69
3 10/18/2022 12:46:01 -81.08,-152.43 86.90 10/18/2022 12:47:12 -81.08,-152.46 86.88 0.89 71
4 10/18/2022 13:36:39 81.11, 15.54 93.20 10/18/2022 13:36:37 81.11, 15.60 93.20 1.06 2
5 10/21/2022 08:20:25 -81.08, -86.09 85.89 10/21/2022 08:21:28 -81.08, -86.02 85.86 1.29 63
6 10/21/2022 09:11:02 81.11, 82.19 94.25 10/21/2022 09:10:53 81.11, 82.03 94.22 2.98 9
7 10/24/2022 03:54:49 -81.09, -19.45 84.87 10/24/2022 03:55:44 -81.09, -19.37 84.83 1.43 55
8 10/24/2022 04:45:26 81.12, 148.78 95.27 10/24/2022 04:45:09 81.12, 148.65 95.25 2.24 17
9 10/26/2022 23:29:13 -81.10, 47.12 83.87 10/26/2022 23:30:00 -81.10, 47.11 83.85 0.21 47



Historial Predications of SNOs between METOP-C and LANDSAT-8
